[[{"header":{"parameterUnit":"m.s-1","parameterCategory":1,"la1":30.2991,"la2":30.254,"lo1":-89.0895,"lo2":-89.0444,"dy":0.0017,"dx":0.0017,"nx":28,"ny":28,"refTime":"2025-04-19T09:00:00:Z","depth":0,"parameterNumber":2,"parameterNumberName":"U-component_of_WINDS"},"data":[0,0,0,0,0,0,0,0,0,0,0,0,0,0,0,0,0,0,0,0,0,0,0,0,0,0,0,0,0,0,0,0,0,0,0,0,0,0,0,0,0,0,0,0,0,0,0,0,0,0,0,0,0,0,0,0,0,0,-5.4754,-5.4755,0,-5.4852,-5.4854,-5.4855,-5.4858,-5.4856,-5.4855,-5.4854,-5.4948,-5.4952,-5.4956,0,0,0,0,0,0,0,0,0,0,0,0,0,-5.4564,-5.4567,-5.4754,-5.4755,-5.4756,-5.4852,-5.4854,-5.4855,-5.4858,-5.4856,-5.4855,-5.4854,-5.4947,-5.4952,-5.4956,0,0,0,0,0,0,0,0,0,0,0,0,0,-5.4652,-5.4568,-5.4753,-5.4769,-5.4772,-5.4852,-5.4854,-5.4855,-5.4858,-5.4856,-5.4855,-5.4853,-5.4946,-5.4951,-5.4956,-5.5025,0,0,-5.4973,-5.4975,0,0,0,0,0,0,0,0,-5.4647,-5.4659,-5.4766,-5.4768,-5.4771,-5.4841,-5.4821,-5.4912,-5.4859,-5.4825,-5.4854,-5.4852,-5.4914,-5.4922,-5.4944,-5.503,-5.5034,-5.4974,-5.4977,-5.4979,-5.4981,0,0,0,0,0,0,0,-5.4641,-5.4655,-5.4793,-5.4767,-5.4771,-5.477,-5.4781,-5.4838,-5.4878,-5.4828,-5.4828,-5.484,-5.4915,-5.4939,-5.4946,-5.5035,-5.4973,-5.4978,-5.4982,-5.4984,-5.5184,-5.5186,0,0,0,0,0,0,-5.4633,-5.465,-5.4789,-5.4795,-5.4704,-5.4775,-5.4787,-5.482,-5.4877,-5.4884,-5.4842,-5.484,-5.493,-5.494,-5.4949,-5.5033,-5.4979,-5.4984,-5.4987,-5.5182,-5.5184,-5.5186,0,0,0,0,0,0,-5.4629,-5.4645,-5.4785,-5.4723,-5.4741,-5.478,-5.4818,-5.4823,-5.4847,-5.4888,-5.4894,-5.4859,-5.4929,-5.4942,-5.5007,-5.5037,-5.4987,-5.4992,-5.5179,-5.5182,-5.5185,-5.5202,0,0,0,0,0,0,-5.4623,-5.4644,-5.4671,-5.4724,-5.4744,-5.4843,-5.482,-5.4826,-5.4857,-5.4856,-5.4906,-5.4912,-5.4929,-5.4999,-5.5013,-5.5043,-5.4996,-5.5177,-5.5181,-5.5184,-5.5199,-5.5206,-5.5211,0,0,0,0,0,-5.4616,-5.467,-5.4672,-5.4689,-5.4779,-5.4844,-5.4856,-5.4875,-5.486,-5.4886,-5.4914,-5.4911,-5.5033,-5.5006,-5.5021,-5.5054,-5.5175,-5.5179,-5.5184,-5.5196,-5.5204,-5.5211,0,0,0,0,0,0,-5.4616,-5.4677,-5.468,-5.4753,-5.4794,-5.4845,-5.4879,-5.4883,-5.4927,-5.4924,-5.4945,-5.4956,-5.5021,-5.5045,-5.5014,-5.5124,-5.5101,-5.5109,-5.5106,-5.5114,-5.5119,-5.5111,-5.5,0,0,0,0,0,-5.4625,-5.4675,-5.4725,-5.4784,-5.4805,-5.4839,-5.4868,-5.488,-5.4922,-5.4939,-5.497,-5.501,-5.5057,-5.5087,-5.5133,-5.5204,-5.5214,-5.5235,-5.5241,-5.5245,-5.525,-5.529,-5.5299,-5.5202,-5.5202,-5.5202,0,0,-5.4643,-5.4682,-5.4711,-5.4785,-5.4818,-5.4867,-5.4853,-5.4905,-5.4941,-5.4946,-5.5009,-5.5035,-5.508,-5.5149,-5.5181,-5.517,-5.5281,-5.5251,-5.5255,-5.5257,-5.5296,-5.5305,-5.5313,-5.5205,-5.5204,-5.5204,0,0,-5.47,-5.4736,-5.4789,-5.4824,-5.4875,-5.4899,-5.4912,-5.4963,-5.4981,-5.5046,-5.5051,-5.5094,-5.5175,-5.5208,-5.5235,-5.5309,-5.5308,-5.5324,-5.5353,-5.5391,-5.5399,-5.5406,-5.5431,-5.544,-5.533,-5.533,-5.533,0,-5.4714,-5.479,-5.4815,-5.4869,-5.49,-5.4911,-5.4965,-5.4996,-5.5059,-5.508,-5.5069,-5.5173,-5.5204,-5.5281,-5.5299,-5.5322,-5.5336,-5.5316,-5.5397,-5.5404,-5.541,-5.5434,-5.5444,-5.5331,-5.5331,-5.5331,-5.5331,0,-5.4805,-5.4858,-5.4895,-5.4958,-5.4995,-5.5048,-5.508,-5.5114,-5.5125,-5.5149,-5.5215,-5.5255,-5.5309,-5.5329,-5.5338,-5.5407,-5.5399,-5.5392,-5.5369,-5.5421,-5.5443,-5.5453,-5.5333,-5.5333,-5.5332,-5.5332,0,0,-5.4859,-5.494,-5.4952,-5.4982,-5.5042,-5.5083,-5.5137,-5.5193,-5.5221,-5.5266,-5.531,-5.5381,-5.5376,-5.5407,-5.5421,-5.5455,-5.551,-5.5444,-5.5445,-5.5453,-5.5588,-5.559,-5.5601,-5.5512,-5.5514,-5.5515,-5.5583,0,-5.4921,-5.5019,-5.5045,-5.5127,-5.5176,-5.5189,-5.5237,-5.5278,-5.5303,-5.5347,-5.5374,-5.5424,-5.5414,-5.5433,-5.5468,-5.5496,-5.5537,-5.5492,-5.5551,-5.5553,-5.5536,-5.5613,-5.5616,-5.5677,-5.5593,-5.5594,-5.5595,0,-5.5004,-5.5054,-5.5142,-5.5198,-5.5219,-5.5261,-5.5315,-5.5359,-5.5406,-5.5422,-5.5459,-5.5471,-5.5527,-5.5505,-5.5582,-5.555,-5.5577,-5.5595,-5.5598,-5.5601,-5.5574,-5.5616,-5.5698,-5.5706,-5.561,-5.5609,-5.5608,0,-5.5033,-5.5121,-5.5186,-5.5211,-5.5278,-5.5308,-5.5336,-5.5383,-5.5416,-5.5463,-5.5484,-5.5537,-5.5565,-5.5605,-5.5631,-5.5613,-5.5705,-5.5685,-5.5718,-5.5718,-5.5733,-5.5731,-5.5818,-5.5756,-5.5756,-5.5756,-5.5756,0,-5.5097,-5.5149,-5.52,-5.5239,-5.5299,-5.5329,-5.5387,-5.5416,-5.5458,-5.5502,-5.5518,-5.5558,-5.5591,-5.5637,-5.5657,-5.5717,-5.5731,-5.5744,-5.5748,-5.574,-5.5738,-5.5755,-5.575,-5.5758,-5.5758,-5.5757,-5.5757,0,-5.5136,-5.5173,-5.5244,-5.5303,-5.532,-5.5361,-5.5411,-5.5449,-5.5477,-5.5533,-5.5548,-5.559,-5.5645,-5.5676,-5.5743,-5.5758,-5.5824,-5.5827,-5.5808,-5.5809,-5.584,-5.5835,-5.5937,-5.5952,-5.5883,-5.5883,-5.5884,0,-5.5173,-5.5215,-5.528,-5.5312,-5.5343,-5.5394,-5.5428,-5.5461,-5.5496,-5.5555,-5.5586,-5.5643,-5.5689,-5.5775,-5.5811,-5.5863,-5.5866,-5.5899,-5.5874,-5.5866,-5.5864,-5.586,-5.5864,-5.5901,-5.5902,-5.5903,-5.5903,0,-5.5234,-5.5251,-5.5301,-5.5359,-5.54,-5.5446,-5.5492,-5.5517,-5.5557,-5.5596,-5.5653,-5.5689,-5.5761,-5.5816,-5.5872,-5.5901,-5.5908,-5.5912,-5.5922,-5.5912,-5.5899,-5.5905,-5.5817,-5.5908,-5.5907,-5.5907,-5.5907,-5.5906,-5.5272,-5.531,-5.5362,-5.5418,-5.5457,-5.55,-5.554,-5.5574,-5.5623,-5.5685,-5.5702,-5.5762,-5.581,-5.5887,-5.5918,-5.5964,-5.5958,-5.5973,-5.5976,-5.5978,-5.5978,-5.5895,-5.5975,-5.5975,-5.5975,-5.5975,-5.5974,0,-5.5332,-5.5368,-5.5419,-5.5484,-5.5528,-5.5536,-5.5588,-5.5623,-5.5677,-5.5723,-5.577,-5.5836,-5.5891,-5.5933,-5.5989,-5.6018,-5.6023,-5.6031,-5.6027,-5.6034,-5.5982,-5.5966,-5.6026,-5.6026,-5.6026,-5.6026,-5.6026,-5.6026,-5.5368,-5.5432,-5.5456,-5.554,-5.5575,-5.5636,-5.5665,-5.5705,-5.5742,-5.5816,-5.5862,-5.5891,-5.5935,-5.5995,-5.6046,-5.6057,-5.6075,-5.6083,-5.6094,-5.6043,-5.6037,-5.6032,-5.6017,-5.6087,-5.6087,-5.6142,-5.6142,-5.6143]},{"header":{"parameterUnit":"m.s-1","parameterCategory":1,"la1":30.2991,"la2":30.254,"lo1":-89.0895,"lo2":-89.0444,"dy":0.0017,"dx":0.0017,"nx":28,"ny":28,"refTime":"2025-04-19T09:00:00:Z","depth":0,"parameterNumber":3,"parameterNumberName":"V-component_of_WINDS"},"data":[0,0,0,0,0,0,0,0,0,0,0,0,0,0,0,0,0,0,0,0,0,0,0,0,0,0,0,0,0,0,0,0,0,0,0,0,0,0,0,0,0,0,0,0,0,0,0,0,0,0,0,0,0,0,0,0,0,0,3.8956,3.8957,0,3.9129,3.9131,3.9133,3.9229,3.9229,3.923,3.923,3.9405,3.9409,3.9413,0,0,0,0,0,0,0,0,0,0,0,0,0,3.8707,3.8711,3.8955,3.8958,3.896,3.9128,3.9131,3.9133,3.9229,3.9229,3.923,3.923,3.9403,3.9408,3.9414,0,0,0,0,0,0,0,0,0,0,0,0,0,3.8841,3.8712,3.8955,3.9028,3.9036,3.9128,3.9131,3.9134,3.9229,3.9229,3.923,3.923,3.9401,3.9408,3.9414,3.9446,0,0,3.9434,3.9437,0,0,0,0,0,0,0,0,3.8833,3.885,3.9015,3.9023,3.9033,3.9158,3.9107,3.9238,3.9229,3.9156,3.923,3.923,3.9322,3.9335,3.9367,3.9454,3.9462,3.9435,3.9439,3.9442,3.9444,0,0,0,0,0,0,0,3.8823,3.8843,3.9024,3.9017,3.9028,3.9052,3.9071,3.9133,3.9234,3.9162,3.9169,3.9189,3.9327,3.936,3.9371,3.9464,3.9435,3.9441,3.9445,3.9447,3.9589,3.9589,0,0,0,0,0,0,3.8803,3.8834,3.9019,3.9029,3.8932,3.9056,3.9078,3.9117,3.9234,3.9252,3.9188,3.9193,3.9349,3.9364,3.9378,3.9425,3.9442,3.9448,3.9452,3.9589,3.9589,3.9589,0,0,0,0,0,0,3.8797,3.8818,3.9012,3.8934,3.896,3.906,3.9103,3.912,3.9154,3.9254,3.9272,3.9204,3.9349,3.9369,3.9429,3.9432,3.9451,3.9457,3.959,3.9589,3.9589,3.9517,0,0,0,0,0,0,3.8789,3.8816,3.8829,3.8934,3.8964,3.906,3.9103,3.9123,3.9165,3.9172,3.9273,3.929,3.9351,3.9419,3.9436,3.9441,3.9462,3.959,3.9589,3.9589,3.952,3.9514,3.951,0,0,0,0,0,3.878,3.8801,3.8829,3.8851,3.8983,3.906,3.9078,3.9148,3.9165,3.9179,3.9244,3.9287,3.9429,3.9424,3.9444,3.9452,3.959,3.9589,3.9589,3.9522,3.9515,3.951,0,0,0,0,0,0,3.8693,3.8816,3.8849,3.8904,3.8971,3.9076,3.9096,3.9139,3.9202,3.9206,3.9291,3.9313,3.9366,3.9415,3.9407,3.949,3.9514,3.9517,3.9456,3.9451,3.9446,3.9433,3.9467,0,0,0,0,0,3.868,3.8733,3.8837,3.8876,3.8908,3.8996,3.9032,3.9081,3.9154,3.9182,3.9251,3.932,3.938,3.9418,3.9479,3.9527,3.9551,3.9542,3.9537,3.9532,3.9535,3.9566,3.9563,3.9588,3.9588,3.9588,0,0,3.8654,3.8728,3.8756,3.886,3.8918,3.8971,3.9019,3.9073,3.9113,3.919,3.9253,3.9305,3.9387,3.9442,3.947,3.9485,3.9533,3.9532,3.9528,3.9533,3.9565,3.9563,3.956,3.9587,3.9587,3.9587,0,0,3.8634,3.8694,3.8734,3.8792,3.8879,3.8938,3.8947,3.9047,3.9085,3.9149,3.9209,3.9257,3.9359,3.9416,3.9457,3.946,3.9503,3.9477,3.9452,3.9481,3.9479,3.9478,3.948,3.948,3.9479,3.9479,3.9479,0,3.8591,3.8673,3.8749,3.88,3.8844,3.8918,3.8959,3.9011,3.9113,3.9142,3.9157,3.9288,3.9348,3.9418,3.9419,3.945,3.9464,3.9467,3.9473,3.9473,3.9473,3.9476,3.9477,3.9475,3.9476,3.9476,3.9476,0,3.8616,3.8672,3.8694,3.8793,3.8839,3.8885,3.8967,3.9006,3.9051,3.9107,3.9172,3.9247,3.9325,3.9345,3.9389,3.9422,3.9429,3.9457,3.9484,3.9466,3.947,3.9472,3.947,3.9472,3.9473,3.9473,0,0,3.8546,3.8687,3.8694,3.874,3.8842,3.8887,3.8936,3.9014,3.9046,3.9113,3.9157,3.9242,3.927,3.9318,3.9368,3.9394,3.9393,3.942,3.9423,3.9413,3.9436,3.9414,3.9415,3.9421,3.9422,3.9422,3.9429,0,3.8542,3.8635,3.8705,3.8771,3.8825,3.8896,3.8939,3.9006,3.906,3.9114,3.9174,3.9233,3.9265,3.9294,3.9322,3.9387,3.9399,3.9387,3.9463,3.9465,3.9442,3.9417,3.9394,3.9397,3.9431,3.9432,3.9432,0,3.855,3.8617,3.8689,3.8787,3.8812,3.8849,3.8927,3.8977,3.9055,3.9093,3.9146,3.9199,3.9254,3.9275,3.9352,3.9343,3.9378,3.9415,3.9416,3.9427,3.9448,3.9428,3.94,3.9401,3.9435,3.9435,3.9435,0,3.8494,3.8602,3.8659,3.8696,3.8812,3.8837,3.8886,3.8964,3.9007,3.9074,3.9103,3.9175,3.9215,3.927,3.9341,3.9349,3.9411,3.9437,3.9445,3.9443,3.9456,3.9454,3.9434,3.9476,3.9476,3.9476,3.9476,0,3.8483,3.8524,3.8636,3.8671,3.872,3.88,3.8845,3.89,3.897,3.9017,3.9082,3.9125,3.9216,3.927,3.9325,3.9382,3.9399,3.9432,3.9446,3.9427,3.9423,3.9452,3.9454,3.9476,3.9476,3.9476,3.9476,0,3.8429,3.8505,3.8573,3.8677,3.8704,3.8735,3.8825,3.8862,3.892,3.8979,3.8998,3.9089,3.9156,3.9232,3.9324,3.9361,3.9414,3.9435,3.9388,3.9397,3.9401,3.94,3.94,3.9405,3.9441,3.9441,3.944,0,3.8418,3.8452,3.856,3.8597,3.8644,3.8702,3.8747,3.8827,3.887,3.8962,3.8988,3.906,3.9122,3.9226,3.9301,3.9371,3.9395,3.939,3.9406,3.9386,3.9397,3.9394,3.9399,3.9385,3.9385,3.9384,3.9383,0,3.839,3.8427,3.8488,3.8564,3.8615,3.8677,3.8743,3.8769,3.8862,3.8908,3.8978,3.9026,3.912,3.9192,3.9272,3.9322,3.9369,3.9378,3.9384,3.9365,3.9337,3.9354,3.9378,3.9378,3.9378,3.9379,3.9379,3.9379,3.8359,3.8393,3.8475,3.8542,3.8599,3.8659,3.87,3.8764,3.8824,3.8908,3.8951,3.902,3.9098,3.9211,3.926,3.9316,3.9331,3.9339,3.9341,3.9343,3.9338,3.9327,3.9331,3.9331,3.9331,3.9331,3.9332,0,3.8336,3.8393,3.8453,3.8544,3.8596,3.8636,3.871,3.8752,3.8812,3.8882,3.8942,3.9023,3.9092,3.9173,3.9247,3.9276,3.93,3.9293,3.9293,3.9304,3.9319,3.9307,3.9274,3.9274,3.9274,3.9274,3.9274,3.9274,3.8331,3.8391,3.8437,3.8526,3.8583,3.8652,3.8692,3.8747,3.8803,3.8891,3.895,3.9002,3.9076,3.9157,3.9222,3.9244,3.9269,3.9257,3.9285,3.9298,3.9303,3.9307,3.9297,3.9261,3.9261,3.9266,3.9266,3.9266]}]]